Location: ???? ????
(31.2831°N, 45.5190°E)
Time: 04:48:27
(UTC+00:00)

CZ-2C R/B - Pass Details

Date: 24 February 2021
Orbit: 783 x 871 km, 98.2° (Epoch: 14 April)

Event Time Altitude Azimuth Distance (km) Brightness Sun altitude
Rises 15:12:36 0° 25° (NNE) 3,426 5.5 -5.1°
Reaches altitude 10° 15:15:19 10° 37° (NE) 2,474 4.7 -5.7°
Maximum altitude 15:20:03 30° 96° (E) 1,472 3.5 -6.7°
Drops below altitude 10° 15:24:41 10° 156° (SSE) 2,413 4.9 -7.7°
Sets 15:27:16 0° 167° (SSE) 3,326 5.7 -8.2°
